SCP
0 0 0 0 0 0 0 0 0 0 0 0 0 0 0 0 0 0 0 0 0 0 0 0 0 0 0 0 0 0 0 0 0 0 -0 0 0 0 0 0 0 0 0
0 0 0 0 0 0 0 0 0 0 0 0 0 0 0 0 0 0 0 0 0 0 0 0 0 0 0 0 0 0 0 0 0 0 0 0 -0 0 0 0 0 0 0
0 0 0 0 0 0 0 0 0 0 0 0 0 0 0 0 0 0 0 0 0 0 0 0 0 0 0 0 0 0 0 0 0 0 0 0 0 -0 0 0 0 0 0
0 0 0 0 0 0 0 0 0 0 0 0 0 0 0 0 0 0 0 0 0 0 0 0 0 0 0 0 0 0 0 0 0 0 0 0 0 0 0 0 0 0 0
0 0 0 0 0 0 0 0 0 0 0 -0 -0 -0 0 -0 -0 -0 -0 -0 0 0 0 0 0 0 0 0 0 0 0 0 0 1 1 0 0 0 0 0 0 0 0
0 0 0 0 0 0 0 0 0 0 -0 -0 -0 -0 -0 -0 -0 -0 -0 -0 -0 -0 0 0 0 0 0 0 0 0 0 0 1 1 1 1 1 1 0 0 0 0 0
0 0 0 0 0 0 0 0 0 0 -0 -0 -0 -0 -0 -0 -0 -0 -0 -0 -0 0 0 0 0 0 0 0 0 0 0 0 0 0 0 0 1 1 1 1 0 0 0
0 0 0 0 0 0 0 0 0 0 0 -0 -0 -0 -0 -0 -0 0 0 -0 -0 0 0 0 0 0 0 0 0 0 0 0 0 0 0 0 0 0 0 1 1 0 0
0 0 0 0 0 0 0 0 0 0 0 0 0 -0 -0 -0 0 0 0 0 0 0 0 0 0 0 0 0 0 0 0 0 0 0 0 0 0 0 0 1 1 1 0
0 0 0 0 0 0 0 0 0 0 0 0 0 0 0 0 0 0 0 0 0 0 0 0 0 0 0 0 0 0 0 0 0 0 0 0 0 0 0 0 0 1 0
0 0 0 0 0 0 0 0 0 0 0 0 0 0 0 0 0 0 0 0 0 0 0 0 0 0 0 0 0 0 0 0 0 0 0 0 0 0 0 0 0 0 0
0 0 0 0 0 0 0 0 0 0 0 0 0 0 0 0 0 0 0 0 0 0 0 0 0 0 0 0 0 0 -0 -0 -0 0 0 0 0 0 0 0 0 0 0
0 0 0 0 0 0 0 0 0 0 0 0 0 0 0 0 0 0 0 0 0 0 0 0 0 0 0 0 0 -0 -0 -0 -0 -0 0 0 0 0 0 0 0 0 0
0 0 0 0 0 0 0 0 0 0 0 0 0 0 0 0 0 0 0 0 0 0 0 0 0 0 0 0 -0 -0 -0 -0 -0 -0 0 0 0 0 0 0 0 0 0
0 0 0 0 0 0 0 0 0 0 0 0 0 0 0 0 0 0 0 0 0 0 0 0 0 0 0 0 -0 -0 0 -0 -0 -0 -0 0 0 0 0 0 0 0 0
0 0 0 0 0 0 0 0 0 0 0 0 0 0 0 0 0 0 0 0 0 0 0 0 0 0 0 0 0 0 0 -0 -0 -0 -0 0 0 0 0 0 0 0 0
0 0 0 0 0 0 0 0 0 0 0 0 0 0 0 0 0 0 0 0 0 0 0 0 0 0 0 0 0 0 0 0 0 -0 -0 0 -0 0 0 0 0 0 0
0 0 0 0 0 0 0 0 0 0 0 0 0 0 0 0 0 0 0 0 0 0 0 0 0 0 0 0 0 0 0 0 0 -0 -0 -0 -0 -0 0 0 0 0 0
0 0 0 0 0 0 0 0 0 0 0 0 0 0 0 0 0 0 0 0 0 0 0 0 0 0 0 0 0 0 0 -0 -0 -0 -0 -0 -0 0 0 0 0 0 0
0 0 0 0 0 0 0 0 0 0 0 0 0 0 0 0 0 0 0 0 0 0 0 0 0 0 0 0 0 0 -0 -0 -0 -0 -0 -0 -0 -0 0 0 0 0 0
0 0 0 0 0 0 0 0 0 0 0 0 0 0 0 0 0 0 0 0 0 0 0 0 0 0 0 0 -0 -0 0 0 0 0 0 0 0 0 0 0 0 0 0
0 0 0 0 0 0 0 0 0 0 0 0 0 0 0 0 0 0 0 0 0 0 0 0 0 0 0 0 -0 0 0 0 -0 0 0 0 0 0 0 0 0 0 0
0 0 0 0 0 0 0 0 0 0 0 0 0 0 0 0 0 0 0 0 0 0 -0 -0 0 0 0 -0 -0 0 0 0 0 0 0 -0 0 0 0 0 0 0 0
0 0 0 0 0 0 0 0 0 0 0 0 0 0 0 0 0 0 0 0 0 0 0 0 -0 0 0 -0 0 0 0 -0 -0 0 0 -0 0 0 0 0 0 0 0
0 0 0 0 0 0 0 0 0 0 0 0 0 0 0 0 0 0 0 0 0 0 0 -0 -0 -0 -0 -0 0 -0 -0 0 -0 -0 0 0 -0 0 0 0 0 0 0
0 0 0 0 0 0 0 0 0 0 0 0 0 0 0 0 0 0 0 0 0 0 -0 -0 0 -0 -0 -0 -0 -0 -0 -0 -0 -0 0 0 -0 0 0 0 0 0 0
Wind_Speed_500mb
16 23 29 34 36 37 38 38 39 39 39 39 40 43 45 47 49 53 55 57 60 63 64 66 67 67 64 61 54 54 56 55 56 57 60 63 73 80 90 94 89 80 81
14 22 29 35 38 39 39 40 41 41 40 40 41 43 45 49 53 57 61 62 64 66 68 68 68 64 54 54 56 56 59 61 59 59 62 63 65 74 74 86 100 95 84
14 23 31 37 41 42 41 40 39 40 41 44 46 49 52 53 56 58 58 60 64 66 69 71 64 61 52 53 54 57 60 58 60 60 62 66 68 71 79 79 90 107 101
15 23 32 38 42 42 42 41 42 43 46 50 53 55 55 56 56 52 57 59 57 57 64 66 68 66 65 61 58 59 59 60 64 66 65 67 74 75 75 82 88 88 113
16 23 31 37 42 42 41 41 43 49 55 58 61 61 62 60 55 52 49 55 55 67 77 80 77 75 74 70 63 62 63 63 65 62 70 66 68 66 73 85 88 97 96
17 24 31 37 41 41 41 42 45 49 54 59 62 65 63 56 50 32 49 63 68 70 65 68 68 74 76 78 80 70 67 68 67 72 64 69 69 70 70 70 80 88 95
19 25 32 37 40 40 41 43 48 51 54 60 69 77 66 63 19 20 79 61 65 62 77 70 73 70 75 76 74 72 69 72 74 75 78 77 77 75 75 77 72 79 86
22 27 33 37 39 38 38 41 46 50 52 55 60 56 36 45 9 85 43 53 59 78 75 73 75 79 76 71 63 65 67 68 70 73 77 78 82 85 82 82 78 81 78
24 29 34 38 38 38 38 41 44 46 48 47 49 41 25 23 78 27 46 55 76 69 77 73 80 78 78 72 60 65 62 60 60 66 70 77 80 80 89 85 84 77 81
27 31 35 36 36 35 36 39 41 41 43 45 47 44 40 44 34 47 41 82 71 85 62 81 78 86 81 70 60 63 61 59 63 64 67 68 69 76 75 82 86 84 77
29 31 34 35 34 33 35 38 38 38 40 42 43 45 46 48 49 49 83 83 93 93 79 71 83 85 81 70 68 63 57 67 69 67 69 70 70 65 68 74 79 81 86
30 32 34 34 32 33 36 37 38 38 39 40 41 42 43 46 53 53 66 84 87 103 97 92 83 81 71 65 65 65 67 65 66 68 74 75 71 71 73 69 73 93 74
30 32 32 31 31 33 36 37 37 38 39 41 43 44 44 46 48 52 61 76 77 94 93 88 82 80 72 68 69 66 70 72 69 67 67 71 77 77 78 80 78 76 71
32 32 31 30 31 33 35 37 38 38 40 42 43 43 46 46 47 49 53 61 83 76 76 83 85 78 74 73 72 72 78 67 62 63 64 67 71 77 82 80 79 78 79
31 31 29 29 31 33 35 37 38 39 40 42 42 43 44 46 47 49 51 52 58 77 83 80 89 86 81 77 73 76 77 71 65 61 56 56 59 68 75 76 78 82 85
30 29 28 29 31 33 35 37 38 40 41 41 41 43 44 46 50 53 54 55 55 66 86 82 96 90 82 77 76 79 72 69 69 62 60 59 67 70 72 76 77 84 90
29 27 27 29 31 33 34 37 39 41 40 39 38 43 47 49 55 58 58 56 55 58 76 90 89 91 87 82 84 83 70 82 76 62 61 67 72 70 70 69 78 82 86
26 25 26 28 30 32 34 37 39 40 39 40 41 46 51 52 54 54 54 52 58 64 72 87 93 96 90 88 90 85 81 82 76 72 67 67 61 60 60 77 77 80 81
24 25 26 28 30 32 34 36 39 40 40 41 44 49 50 52 59 60 54 62 65 67 70 78 87 83 88 83 85 81 84 83 81 79 70 76 71 63 59 64 63 74 83
23 24 25 27 30 32 34 36 38 41 43 46 49 50 52 54 55 55 59 64 63 68 71 71 76 83 84 81 77 87 90 88 93 85 79 91 82 55 33 40 55 61 77
23 23 24 26 29 31 34 37 39 41 46 48 47 46 48 49 51 49 52 56 64 67 67 72 72 74 74 77 85 93 86 94 94 78 89 103 81 51 34 29 35 53 58
21 21 23 26 28 30 33 34 32 36 42 45 50 50 48 48 49 52 57 55 50 58 67 72 80 70 74 77 85 91 82 89 95 84 99 109 86 75 44 38 47 66 62
19 19 21 24 27 29 31 32 29 35 42 46 48 49 51 50 57 58 57 50 62 66 58 62 72 71 74 74 83 84 81 82 88 94 90 107 89 93 63 41 51 70 76
16 17 18 22 24 26 30 32 28 36 40 42 45 48 54 61 60 60 67 74 72 68 67 62 64 67 66 70 71 74 79 81 87 87 86 86 96 103 78 34 40 68 81
14 15 17 19 21 24 30 34 29 35 40 44 44 52 59 59 66 59 62 68 74 75 65 63 62 57 60 62 60 66 71 80 82 95 87 73 91 102 78 22 24 63 84
12 12 14 18 22 25 29 32 30 36 44 50 58 63 63 62 54 56 63 74 81 79 70 66 65 68 66 63 53 55 67 72 76 89 73 101 91 74 43 25 30 36 74
Wind_Direction_500mb
25 18 12 8 3 357 350 347 344 342 340 340 339 336 336 333 331 328 324 320 315 310 306 303 298 295 293 292 298 294 289 286 281 279 279 272 264 261 256 252 248 246 245
9 7 4 1 357 352 349 346 342 340 339 337 336 335 333 331 329 326 322 316 312 309 306 302 299 299 308 306 301 297 294 288 283 280 275 273 273 267 266 257 250 245 245
352 356 356 354 353 350 346 343 340 339 338 336 335 334 332 331 329 326 321 317 314 310 306 301 300 297 310 305 303 297 290 284 279 277 276 274 273 268 264 263 257 246 243
337 348 351 350 348 346 343 341 340 339 337 336 335 334 334 333 333 331 326 325 323 323 319 313 306 303 298 300 303 300 291 287 282 277 278 272 267 264 264 265 258 256 242
324 337 342 343 344 342 340 341 341 341 340 338 337 336 337 339 337 336 344 336 324 318 315 309 303 298 296 295 301 296 290 284 283 281 275 273 270 269 262 257 258 256 252
310 327 335 338 340 338 337 338 341 342 341 338 336 335 339 344 340 343 342 327 322 318 315 310 308 301 301 300 294 296 286 283 280 276 280 277 273 273 271 268 258 256 252
298 319 328 332 334 334 335 339 340 341 342 341 340 341 343 349 327 335 322 329 326 329 327 318 313 310 308 303 301 297 295 288 281 275 271 273 273 274 273 267 266 260 256
293 311 319 328 330 331 334 338 340 341 343 347 347 346 339 347 321 322 325 331 332 325 329 323 317 317 320 318 308 304 297 290 282 276 271 269 267 267 267 267 266 262 260
288 304 315 324 327 328 334 339 340 340 341 345 346 352 341 319 324 316 329 329 322 325 325 322 322 320 320 315 312 316 305 296 289 284 275 270 267 266 262 263 263 263 260
284 298 311 319 321 325 333 336 337 337 337 338 339 340 331 324 323 323 326 311 320 322 318 321 322 320 319 316 311 315 304 294 293 289 281 278 273 264 264 259 260 260 264
279 295 308 313 317 324 329 332 332 332 332 332 332 329 325 322 318 303 309 313 318 321 318 319 313 318 321 317 315 314 306 297 292 285 284 281 281 280 271 264 262 262 256
277 293 304 310 314 321 326 327 328 328 327 326 325 324 322 317 313 309 303 306 310 318 318 318 318 322 324 320 320 314 305 301 296 290 282 277 279 278 275 273 272 259 248
275 289 299 304 311 318 322 322 323 323 323 323 323 323 320 315 313 310 307 303 304 311 315 318 326 327 327 322 323 323 314 305 299 294 287 276 271 275 276 277 273 266 274
274 288 295 302 311 315 317 318 319 320 321 321 321 321 319 319 317 314 308 308 307 306 309 315 326 330 333 329 326 324 322 321 312 300 289 283 276 275 274 274 271 271 266
275 286 293 302 309 313 314 315 316 317 318 319 321 322 321 323 320 317 314 309 306 302 306 311 316 327 326 327 327 324 324 321 319 309 301 291 284 279 273 267 269 266 259
275 284 294 302 308 310 311 312 313 315 317 319 322 322 322 322 319 318 315 311 308 304 295 309 318 320 323 323 326 326 321 324 325 311 308 299 296 286 275 268 268 263 257
274 284 294 301 306 307 309 311 313 314 316 318 322 320 322 325 320 318 315 312 310 310 301 311 316 322 322 324 324 324 324 327 323 316 306 300 303 295 273 267 264 260 256
274 285 293 300 304 307 309 310 311 314 317 318 322 322 325 325 322 320 321 318 316 317 310 304 315 317 319 324 323 324 322 324 321 315 308 315 315 298 273 264 257 257 244
276 286 295 301 303 306 308 309 311 312 315 319 323 324 324 328 328 326 325 319 320 317 315 311 306 309 315 318 322 323 326 327 328 320 314 330 323 309 274 262 254 242 230
278 288 296 301 304 308 309 310 310 312 318 323 324 326 327 324 320 322 324 316 314 312 311 307 304 309 315 320 319 323 321 325 327 326 326 332 328 323 285 260 239 227 229
279 288 296 301 307 310 311 314 315 320 318 317 319 321 321 322 322 316 307 312 311 306 307 308 304 309 313 318 325 328 320 321 324 322 328 330 332 333 305 299 250 225 236
276 287 297 304 310 314 315 316 317 316 313 315 319 323 324 323 324 321 315 305 302 301 299 301 305 305 309 320 328 322 320 322 320 324 327 327 333 336 327 277 242 229 230
274 289 301 309 315 319 321 323 324 314 313 319 321 322 323 323 320 317 316 318 317 315 310 302 301 308 314 318 323 323 322 320 317 321 328 322 332 329 327 267 256 238 228
278 294 306 315 324 328 327 326 329 314 319 322 322 325 326 323 325 325 318 313 310 308 310 311 313 311 311 312 313 319 321 321 320 323 328 315 328 328 330 267 252 235 225
282 298 314 327 331 333 333 330 330 323 325 326 329 330 331 324 320 317 314 312 309 307 305 308 306 312 313 311 317 325 328 327 322 325 331 322 320 327 333 276 253 227 215
282 309 328 336 339 340 334 334 332 331 328 331 335 330 326 325 321 320 316 311 305 302 304 309 313 308 311 321 324 325 331 327 326 324 325 322 323 331 320 309 315 220 194
Wind_Speed_850mb
16 23 29 34 36 37 38 38 39 39 39 39 40 43 45 47 49 53 55 57 60 63 64 66 67 67 64 61 54 54 56 55 56 57 60 63 73 80 90 94 89 80 81
14 22 29 35 38 39 39 40 41 41 40 40 41 43 45 49 53 57 61 62 64 66 68 68 68 64 54 54 56 56 59 61 59 59 62 63 65 74 74 86 100 95 84
14 23 31 37 41 42 41 40 39 40 41 44 46 49 52 53 56 58 58 60 64 66 69 71 64 61 52 53 54 57 60 58 60 60 62 66 68 71 79 79 90 107 101
15 23 32 38 42 42 42 41 42 43 46 50 53 55 55 56 56 52 57 59 57 57 64 66 68 66 65 61 58 59 59 60 64 66 65 67 74 75 75 82 88 88 113
16 23 31 37 42 42 41 41 43 49 55 58 61 61 62 60 55 52 49 55 55 67 77 80 77 75 74 70 63 62 63 63 65 62 70 66 68 66 73 85 88 97 96
17 24 31 37 41 41 41 42 45 49 54 59 62 65 63 56 50 32 49 63 68 70 65 68 68 74 76 78 80 70 67 68 67 72 64 69 69 70 70 70 80 88 95
19 25 32 37 40 40 41 43 48 51 54 60 69 77 66 63 19 20 79 61 65 62 77 70 73 70 75 76 74 72 69 72 74 75 78 77 77 75 75 77 72 79 86
22 27 33 37 39 38 38 41 46 50 52 55 60 56 36 45 9 85 43 53 59 78 75 73 75 79 76 71 63 65 67 68 70 73 77 78 82 85 82 82 78 81 78
24 29 34 38 38 38 38 41 44 46 48 47 49 41 25 23 78 27 46 55 76 69 77 73 80 78 78 72 60 65 62 60 60 66 70 77 80 80 89 85 84 77 81
27 31 35 36 36 35 36 39 41 41 43 45 47 44 40 44 34 47 41 82 71 85 62 81 78 86 81 70 60 63 61 59 63 64 67 68 69 76 75 82 86 84 77
29 31 34 35 34 33 35 38 38 38 40 42 43 45 46 48 49 49 83 83 93 93 79 71 83 85 81 70 68 63 57 67 69 67 69 70 70 65 68 74 79 81 86
30 32 34 34 32 33 36 37 38 38 39 40 41 42 43 46 53 53 66 84 87 103 97 92 83 81 71 65 65 65 67 65 66 68 74 75 71 71 73 69 73 93 74
30 32 32 31 31 33 36 37 37 38 39 41 43 44 44 46 48 52 61 76 77 94 93 88 82 80 72 68 69 66 70 72 69 67 67 71 77 77 78 80 78 76 71
32 32 31 30 31 33 35 37 38 38 40 42 43 43 46 46 47 49 53 61 83 76 76 83 85 78 74 73 72 72 78 67 62 63 64 67 71 77 82 80 79 78 79
31 31 29 29 31 33 35 37 38 39 40 42 42 43 44 46 47 49 51 52 58 77 83 80 89 86 81 77 73 76 77 71 65 61 56 56 59 68 75 76 78 82 85
30 29 28 29 31 33 35 37 38 40 41 41 41 43 44 46 50 53 54 55 55 66 86 82 96 90 82 77 76 79 72 69 69 62 60 59 67 70 72 76 77 84 90
29 27 27 29 31 33 34 37 39 41 40 39 38 43 47 49 55 58 58 56 55 58 76 90 89 91 87 82 84 83 70 82 76 62 61 67 72 70 70 69 78 82 86
26 25 26 28 30 32 34 37 39 40 39 40 41 46 51 52 54 54 54 52 58 64 72 87 93 96 90 88 90 85 81 82 76 72 67 67 61 60 60 77 77 80 81
24 25 26 28 30 32 34 36 39 40 40 41 44 49 50 52 59 60 54 62 65 67 70 78 87 83 88 83 85 81 84 83 81 79 70 76 71 63 59 64 63 74 83
23 24 25 27 30 32 34 36 38 41 43 46 49 50 52 54 55 55 59 64 63 68 71 71 76 83 84 81 77 87 90 88 93 85 79 91 82 55 33 40 55 61 77
23 23 24 26 29 31 34 37 39 41 46 48 47 46 48 49 51 49 52 56 64 67 67 72 72 74 74 77 85 93 86 94 94 78 89 103 81 51 34 29 35 53 58
21 21 23 26 28 30 33 34 32 36 42 45 50 50 48 48 49 52 57 55 50 58 67 72 80 70 74 77 85 91 82 89 95 84 99 109 86 75 44 38 47 66 62
19 19 21 24 27 29 31 32 29 35 42 46 48 49 51 50 57 58 57 50 62 66 58 62 72 71 74 74 83 84 81 82 88 94 90 107 89 93 63 41 51 70 76
16 17 18 22 24 26 30 32 28 36 40 42 45 48 54 61 60 60 67 74 72 68 67 62 64 67 66 70 71 74 79 81 87 87 86 86 96 103 78 34 40 68 81
14 15 17 19 21 24 30 34 29 35 40 44 44 52 59 59 66 59 62 68 74 75 65 63 62 57 60 62 60 66 71 80 82 95 87 73 91 102 78 22 24 63 84
12 12 14 18 22 25 29 32 30 36 44 50 58 63 63 62 54 56 63 74 81 79 70 66 65 68 66 63 53 55 67 72 76 89 73 101 91 74 43 25 30 36 74
Wind_Direction_850mb
25 18 12 8 3 357 350 347 344 342 340 340 339 336 336 333 331 328 324 320 315 310 306 303 298 295 293 292 298 294 289 286 281 279 279 272 264 261 256 252 248 246 245
9 7 4 1 357 352 349 346 342 340 339 337 336 335 333 331 329 326 322 316 312 309 306 302 299 299 308 306 301 297 294 288 283 280 275 273 273 267 266 257 250 245 245
352 356 356 354 353 350 346 343 340 339 338 336 335 334 332 331 329 326 321 317 314 310 306 301 300 297 310 305 303 297 290 284 279 277 276 274 273 268 264 263 257 246 243
337 348 351 350 348 346 343 341 340 339 337 336 335 334 334 333 333 331 326 325 323 323 319 313 306 303 298 300 303 300 291 287 282 277 278 272 267 264 264 265 258 256 242
324 337 342 343 344 342 340 341 341 341 340 338 337 336 337 339 337 336 344 336 324 318 315 309 303 298 296 295 301 296 290 284 283 281 275 273 270 269 262 257 258 256 252
310 327 335 338 340 338 337 338 341 342 341 338 336 335 339 344 340 343 342 327 322 318 315 310 308 301 301 300 294 296 286 283 280 276 280 277 273 273 271 268 258 256 252
298 319 328 332 334 334 335 339 340 341 342 341 340 341 343 349 327 335 322 329 326 329 327 318 313 310 308 303 301 297 295 288 281 275 271 273 273 274 273 267 266 260 256
293 311 319 328 330 331 334 338 340 341 343 347 347 346 339 347 321 322 325 331 332 325 329 323 317 317 320 318 308 304 297 290 282 276 271 269 267 267 267 267 266 262 260
288 304 315 324 327 328 334 339 340 340 341 345 346 352 341 319 324 316 329 329 322 325 325 322 322 320 320 315 312 316 305 296 289 284 275 270 267 266 262 263 263 263 260
284 298 311 319 321 325 333 336 337 337 337 338 339 340 331 324 323 323 326 311 320 322 318 321 322 320 319 316 311 315 304 294 293 289 281 278 273 264 264 259 260 260 264
279 295 308 313 317 324 329 332 332 332 332 332 332 329 325 322 318 303 309 313 318 321 318 319 313 318 321 317 315 314 306 297 292 285 284 281 281 280 271 264 262 262 256
277 293 304 310 314 321 326 327 328 328 327 326 325 324 322 317 313 309 303 306 310 318 318 318 318 322 324 320 320 314 305 301 296 290 282 277 279 278 275 273 272 259 248
275 289 299 304 311 318 322 322 323 323 323 323 323 323 320 315 313 310 307 303 304 311 315 318 326 327 327 322 323 323 314 305 299 294 287 276 271 275 276 277 273 266 274
274 288 295 302 311 315 317 318 319 320 321 321 321 321 319 319 317 314 308 308 307 306 309 315 326 330 333 329 326 324 322 321 312 300 289 283 276 275 274 274 271 271 266
275 286 293 302 309 313 314 315 316 317 318 319 321 322 321 323 320 317 314 309 306 302 306 311 316 327 326 327 327 324 324 321 319 309 301 291 284 279 273 267 269 266 259
275 284 294 302 308 310 311 312 313 315 317 319 322 322 322 322 319 318 315 311 308 304 295 309 318 320 323 323 326 326 321 324 325 311 308 299 296 286 275 268 268 263 257
274 284 294 301 306 307 309 311 313 314 316 318 322 320 322 325 320 318 315 312 310 310 301 311 316 322 322 324 324 324 324 327 323 316 306 300 303 295 273 267 264 260 256
274 285 293 300 304 307 309 310 311 314 317 318 322 322 325 325 322 320 321 318 316 317 310 304 315 317 319 324 323 324 322 324 321 315 308 315 315 298 273 264 257 257 244
276 286 295 301 303 306 308 309 311 312 315 319 323 324 324 328 328 326 325 319 320 317 315 311 306 309 315 318 322 323 326 327 328 320 314 330 323 309 274 262 254 242 230
278 288 296 301 304 308 309 310 310 312 318 323 324 326 327 324 320 322 324 316 314 312 311 307 304 309 315 320 319 323 321 325 327 326 326 332 328 323 285 260 239 227 229
279 288 296 301 307 310 311 314 315 320 318 317 319 321 321 322 322 316 307 312 311 306 307 308 304 309 313 318 325 328 320 321 324 322 328 330 332 333 305 299 250 225 236
276 287 297 304 310 314 315 316 317 316 313 315 319 323 324 323 324 321 315 305 302 301 299 301 305 305 309 320 328 322 320 322 320 324 327 327 333 336 327 277 242 229 230
274 289 301 309 315 319 321 323 324 314 313 319 321 322 323 323 320 317 316 318 317 315 310 302 301 308 314 318 323 323 322 320 317 321 328 322 332 329 327 267 256 238 228
278 294 306 315 324 328 327 326 329 314 319 322 322 325 326 323 325 325 318 313 310 308 310 311 313 311 311 312 313 319 321 321 320 323 328 315 328 328 330 267 252 235 225
282 298 314 327 331 333 333 330 330 323 325 326 329 330 331 324 320 317 314 312 309 307 305 308 306 312 313 311 317 325 328 327 322 325 331 322 320 327 333 276 253 227 215
282 309 328 336 339 340 334 334 332 331 328 331 335 330 326 325 321 320 316 311 305 302 304 309 313 308 311 321 324 325 331 327 326 324 325 322 323 331 320 309 315 220 194